Torna al catalogo

STARLINK-5218

AttivoComunicazioniVLEO
NORAD 55636·PAYLOAD·🇺🇸 United States

Lanciato Feb 17, 2023 da Vandenberg Space Force Base

Loading…

Prossimi Passaggi (prossime 24 ore)

TLE

AggiornatoSource: CelesTrak SupGP

Epoca: Sep 14, 2026, 22:28 UTC

1 55636C 23021J   26257.93659722  .00020014  00000+0  16774-2 0  2578
2 55636  70.0003  87.2309 0002760 271.1187 217.5487 14.98317334    16

Traccia STARLINK-5218 in tempo reale con AllMySat

Download on the App Store